Wisconsin Rapids, WI

7:11 PM CDT on October 22, 2017 (GMT -0500)
Alexander Field South Wood County

Weather History for KISW - February, 2014

Change the Weather History Date:

Saturday, February 1, 2014

  Actual Average Record
Temperature  
Mean Temperature 5 °F -  
Max Temperature 19 °F 26 °F 43 °F (1987)
Min Temperature -9 °F 3 °F -26 °F (1959)
Degree Days  
Heating Degree Days 60    
Moisture  
Dew Point -1 °F    
Average Humidity 70    
Maximum Humidity 88    
Minimum Humidity 54    
Precipitation  
Precipitation 0.00 in - - ()
Sea Level Pressure  
Sea Level Pressure 30.07 in    
Wind  
Wind Speed 2 mph (West)    
Max Wind Speed 10 mph    
Max Gust Speed -    
Visibility 10 miles    
Events Snow    
Averages and records for this station are not official NWS values.
T = Trace of Precipitation, MM = Missing Value Source: NWS Daily Summary

Daily Weather History Graph

Daily Weather History Graph

Search for Another Location

Airport or City:

Trip Planner

Search our weather history database for the weather conditions in past years. The results will help you decide how hot, cold, wet, or windy it might be!

Date:

Astronomy

Feb. 01, 2014 Rise Set
Actual Time 7:17 AM CST 5:08 PM CST
Civil Twilight 6:46 AM CST 5:39 PM CST
Nautical Twilight 6:11 AM CST 6:14 PM CST
Astronomical Twilight 5:37 AM CST 6:48 PM CST
Moon 8:00 AM CST (2/1) 7:52 PM CST (2/1)
Length of Visible Light 10h 53m
Length of Day
9h 51m
Waxing Crescent, 5% of the Moon is Illuminated
Feb 1
Waxing Crescent
Feb 6
First Quarter
Feb 14
Full
Feb 22
Last Quarter
Mar 1
New

Hourly Weather History & Observations

Time (CST) Temp. Windchill Dew Point Humidity Pressure Visibility Wind Dir Wind Speed Gust Speed Precip Events Conditions
12:54 AM -9.9 °F - -14.1 °F 82% 30.14 in 10.0 mi Calm Calm - N/A   Clear
1:54 AM -9.0 °F - -14.1 °F 79% 30.13 in 10.0 mi Calm Calm - N/A   Clear
2:54 AM -6.0 °F - -11.0 °F 79% 30.13 in 10.0 mi Calm Calm - N/A   Clear
3:54 AM -4.0 °F - -9.0 °F 79% 30.10 in 10.0 mi Calm Calm - N/A   Mostly Cloudy
4:54 AM -2.9 °F - -8.0 °F 79% 30.11 in 10.0 mi Calm Calm - N/A   Mostly Cloudy
5:54 AM -0.9 °F -8.9 °F -7.1 °F 75% 30.09 in 10.0 mi ENE 3.5 mph - N/A   Overcast
6:54 AM 1.0 °F - -6.0 °F 72% 30.09 in 10.0 mi Calm Calm - N/A   Overcast
7:54 AM 1.9 °F - -6.0 °F 69% 30.10 in 10.0 mi Calm Calm - N/A   Overcast
8:54 AM 3.9 °F -3.4 °F -4.0 °F 70% 30.08 in 10.0 mi East 3.5 mph - N/A   Overcast
9:54 AM 8.1 °F - -2.0 °F 64% 30.06 in 10.0 mi Calm Calm - N/A   Overcast
10:54 AM 9.0 °F - -0.9 °F 64% 30.05 in 10.0 mi Calm Calm - N/A   Overcast
11:54 AM 12.9 °F 2.6 °F -0.0 °F 56% 30.04 in 10.0 mi SSW 6.9 mph - N/A   Overcast
12:45 PM 12.9 °F 5.2 °F 3.9 °F 67% 29.95 in 2.5 mi WNW 4.6 mph - 0.00 in Snow Light Snow
12:54 PM 14.0 °F - 3.9 °F 64% 30.03 in 5.0 mi Calm Calm - 0.00 in Snow Light Snow
1:54 PM 15.1 °F 7.7 °F 6.1 °F 68% 30.00 in 10.0 mi South 4.6 mph - 0.00 in   Scattered Clouds
2:54 PM 17.1 °F 10.0 °F 7.0 °F 65% 30.01 in 10.0 mi SSW 4.6 mph - N/A   Overcast
3:54 PM 19.0 °F 9.0 °F 5.0 °F 54% 30.01 in 10.0 mi West 8.1 mph - N/A   Overcast
4:20 PM 18.0 °F 8.7 °F 5.0 °F 57% 29.94 in 10.0 mi West 6.9 mph - N/A   Overcast
4:54 PM 18.0 °F 12.7 °F 5.0 °F 57% 30.03 in 10.0 mi West 3.5 mph - N/A   Overcast
5:54 PM 16.0 °F 8.8 °F 3.9 °F 59% 30.04 in 10.0 mi West 4.6 mph - N/A   Overcast
6:12 PM 14.0 °F 5.1 °F 3.0 °F 62% 29.98 in 10.0 mi West 5.8 mph - N/A   Scattered Clouds
6:54 PM 12.9 °F -0.2 °F 3.9 °F 67% 30.08 in 10.0 mi WNW 10.4 mph - N/A   Clear
7:54 PM 10.0 °F 0.4 °F 3.0 °F 73% 30.10 in 10.0 mi WNW 5.8 mph - N/A   Clear
8:54 PM 8.1 °F 1.4 °F 1.9 °F 76% 30.12 in 10.0 mi WNW 3.5 mph - N/A   Clear
9:54 PM 6.1 °F -2.8 °F 1.0 °F 80% 30.14 in 10.0 mi WNW 4.6 mph - N/A   Clear
10:54 PM 6.1 °F -4.3 °F 1.9 °F 83% 30.15 in 10.0 mi WNW 5.8 mph - N/A   Clear
11:54 PM 3.9 °F -5.3 °F 1.0 °F 88% 30.18 in 10.0 mi West 4.6 mph - N/A   Clear